Torna al catalogo

FLOCK 4H 18

AttivoScienzaSSO
NORAD 66721·PAYLOAD·🇺🇸 United States

Lanciato Nov 28, 2025 da Vandenberg Space Force Base

Loading…

Prossimi Passaggi (prossime 24 ore)

TLE

AggiornatoSource: CelesTrak SupGP

Epoca: Sep 14, 2026, 12:45 UTC

1 66721C 25276BH  26257.53140046  .00010043  00000+0  45728-3 0  2572
2 66721  97.4107 329.4634 0005425  82.0911 196.5357 15.20743121    13

Traccia FLOCK 4H 18 in tempo reale con AllMySat

Download on the App Store